KLM1818 EHAM-EDDF

Flight info

Callsign KLM1818
Flight time N/A
Altitude 35000
Route EDUPO Z739 MISGO DCT DIXAT EDDF/07L
Aircraft E75L/M-SDE3GILORVW/S

Departure

Time N/A
Airport Amsterdam Airport Schiphol (EHAM)

Arrival

Time 2026-05-07 19:05
Airport Frankfurt Main Airport (EDDF)
Time Latitude Longitude Altitude Speed Heading
2026-05-07 19:05 50.04386 8.54684 361 ft 25 kts 130°
2026-05-07 19:05 50.04329 8.54759 356 ft 0 kts 155°
2026-05-07 19:07 50.04322 8.54764 361 ft 4 kts 155°
2026-05-07 19:07 50.04267 8.54795 355 ft 12 kts 163°
2026-05-07 19:07 50.04186 8.54843 353 ft 13 kts 159°
2026-05-07 19:07 50.04089 8.54899 351 ft 15 kts 160°
2026-05-07 19:08 50.04018 8.54978 353 ft 13 kts 96°
2026-05-07 19:08 50.04047 8.55138 356 ft 16 kts 70°
2026-05-07 19:08 50.04090 8.55316 353 ft 19 kts 69°
2026-05-07 19:08 50.04141 8.55526 354 ft 22 kts 69°
2026-05-07 19:09 50.04197 8.55764 355 ft 24 kts 71°
2026-05-07 19:09 50.04257 8.56014 357 ft 25 kts 70°
2026-05-07 19:09 50.04321 8.56276 359 ft 26 kts 66°
2026-05-07 19:09 50.04385 8.56551 360 ft 27 kts 75°
2026-05-07 19:10 50.04436 8.56770 361 ft 18 kts 66°
2026-05-07 19:10 50.04475 8.56932 362 ft 17 kts 69°
2026-05-07 19:10 50.04523 8.57126 357 ft 20 kts 68°
2026-05-07 19:10 50.04574 8.57341 358 ft 23 kts 70°
2026-05-07 19:11 50.04631 8.57579 357 ft 24 kts 70°
2026-05-07 19:11 50.04693 8.57838 362 ft 26 kts 67°
2026-05-07 19:11 50.04809 8.58061 362 ft 25 kts 69°
2026-05-07 19:11 50.04848 8.58224 361 ft 24 kts 67°
2026-05-07 19:12 50.04903 8.58468 364 ft 18 kts 65°
2026-05-07 19:12 50.04947 8.58659 364 ft 19 kts 71°
2026-05-07 19:12 50.04996 8.58861 360 ft 21 kts 71°
2026-05-07 19:12 50.05032 8.59010 365 ft 22 kts 67°
2026-05-07 19:13 50.05055 8.59164 357 ft 1 kts 133°
2026-05-07 19:13 50.05051 8.59165 357 ft 0 kts 173°
2026-05-07 19:13 50.05049 8.59164 357 ft 0 kts 202°
2026-05-07 19:13 50.05039 8.59150 362 ft 5 kts 226°
2026-05-07 19:14 50.05010 8.59134 359 ft 5 kts 176°
2026-05-07 19:14 50.04980 8.59149 362 ft 0 kts 157°